Location: Helsinki
(60.1699°N, 24.9384°E)
Time: 19:14:30
(UTC+02:00)

Transit 4A - Pass Details

Date: 04 November 2020
Orbit: 862 x 982 km, 66.8° (Epoch: 30 November)

Event Time Altitude Azimuth Distance (km) Brightness Sun altitude
Rises 13:08:43 0° 172° (S) 3,620 12.3 13.1°
Reaches altitude 10° 13:11:44 10° 159° (SSE) 2,696 11.3 13.0°
Maximum altitude 13:16:30 23° 110° (ESE) 1,944 9.7 12.8°
Drops below altitude 10° 13:21:20 10° 61° (ENE) 2,743 10.0 12.6°
Sets 13:24:26 0° 48° (NE) 3,699 10.5 12.5°
